Weather History for London, ON

Change the Weather History Date:

Tuesday, February 5, 2013

  Actual Average Record
Temperature  
Mean Temperature 12 °F -  
Max Temperature 23 °F 29 °F 44 °F (2008)
Min Temperature 0 °F 15 °F -13 °F (2009)
Degree Days  
Heating Degree Days 54    
Moisture  
Dew Point 9 °F    
Average Humidity 82    
Maximum Humidity 93    
Minimum Humidity 51    
Precipitation  
Precipitation 0.00 in - - ()
Sea Level Pressure  
Sea Level Pressure 29.91 in    
Wind  
Wind Speed 5 mph ()    
Max Wind Speed 15 mph    
Max Gust Speed 22 mph    
Visibility 11.9 miles    
Events Snow    
Averages and records for this station are not official NWS values.
T = Trace of Precipitation, MM = Missing Value Source: Averaged Metar Reports

Daily Weather History Graph

Daily Weather History Graph

Search for Another Location

Airport:

Trip Planner

Search our weather history database for the weather conditions in past years. The results will help you decide how hot, cold, wet, or windy it might be!

Date:

Astronomy

Feb. 05, 2013 Rise Set
Actual Time 7:34 AM EST 5:42 PM EST
Civil Twilight 7:05 AM EST 6:12 PM EST
Nautical Twilight 6:31 AM EST 6:46 PM EST
Astronomical Twilight 5:58 AM EST 7:19 PM EST
Moon 3:18 AM EST (2/5) 12:56 PM EST (2/5)
Length of Visible Light 11h 07m
Length of Day
10h 08m
Waning Crescent, 27% of the Moon is Illuminated
Feb 5
Waning Crescent
Feb 10
New
Feb 17
First Quarter
Feb 25
Full
Mar 4
Last Quarter

Hourly Weather History & Observations

Time (EST) Temp. Windchill Dew Point Humidity Pressure Visibility Wind Dir Wind Speed Gust Speed Precip Events Conditions
12:00 AM 3.2 °F -4.2 °F -0.4 °F 85% 29.95 in 15.0 mi ENE 3.5 mph - N/A   Partly Cloudy
1:00 AM 2 °F - -2 °F 77% 29.96 in 15 mi NNE 2.3 mph - -  
1:00 AM 1.4 °F - -2.2 °F 85% 29.96 in 15.0 mi Calm Calm - N/A   Scattered Clouds
2:00 AM 3.2 °F - -0.4 °F 85% 29.96 in 15.0 mi East 2.3 mph - N/A   Mostly Cloudy
3:00 AM 5.0 °F - 1.4 °F 85% 29.95 in 15.0 mi Calm Calm - N/A   Overcast
4:00 AM 5.0 °F - 3.2 °F 92% 29.95 in 15.0 mi Calm Calm - N/A   Scattered Clouds
5:00 AM 3.2 °F -4.2 °F -0.4 °F 85% 29.96 in 15.0 mi East 3.5 mph - N/A   Scattered Clouds
6:00 AM -0.4 °F - -4.0 °F 85% 29.95 in 15.0 mi ENE 2.3 mph - N/A   Partly Cloudy
7:00 AM 0 °F - -4 °F 77% 29.96 in 15 mi ENE 3.5 mph - -  
7:00 AM -0.4 °F - -4.0 °F 85% 29.96 in 15.0 mi ENE 2.3 mph - N/A   Partly Cloudy
8:00 AM -0.4 °F - -4.0 °F 85% 29.97 in 15.0 mi NE 2.3 mph - N/A   Mostly Cloudy
9:00 AM 3.2 °F - -0.4 °F 85% 29.97 in 15.0 mi Calm Calm - N/A   Mostly Cloudy
10:00 AM 8.6 °F - 5.0 °F 85% 29.98 in 15.0 mi Calm Calm - N/A   Mostly Cloudy
11:00 AM 14.0 °F - 8.6 °F 79% 29.96 in 15.0 mi East 2.3 mph - N/A   Overcast
12:00 PM 19.4 °F 11.5 °F 8.6 °F 63% 29.93 in 15.0 mi South 5.8 mph - N/A   Overcast
1:00 PM 20 °F - 10 °F 51% 29.88 in 15 mi SSE 9.2 mph - -   Overcast
1:00 PM 19.4 °F 7.9 °F 8.6 °F 63% 29.88 in 15.0 mi South 10.4 mph - N/A   Overcast
2:00 PM 21.2 °F 11.7 °F 10.4 °F 63% 29.88 in 15.0 mi SSW 8.1 mph - N/A   Mostly Cloudy
3:00 PM 21.2 °F 8.3 °F 12.2 °F 68% 29.87 in 15.0 mi SW 13.8 mph - N/A   Mostly Cloudy
4:00 PM 21.2 °F 10.1 °F 14.0 °F 74% 29.87 in 15.0 mi SSW 10.4 mph - N/A   Overcast
5:00 PM 21.2 °F 9.5 °F 15.8 °F 80% 29.87 in 15.0 mi SSW 11.5 mph - N/A   Overcast
6:00 PM 21.2 °F 12.6 °F 15.8 °F 80% 29.87 in 15.0 mi South 6.9 mph - N/A   Overcast
6:13 PM 21.2 °F 11.7 °F 17.6 °F 86% 29.87 in 15.0 mi South 8.1 mph - N/A Snow Light Snow
6:53 PM 21.2 °F 10.9 °F 17.6 °F 86% 29.87 in 2.0 mi South 9.2 mph - N/A Snow Snow
6:56 PM 21.2 °F 10.1 °F 17.6 °F 86% 29.87 in 2.0 mi South 10.4 mph - N/A Snow Light Snow
7:00 PM 21 °F - 18 °F 85% 29.87 in 1 mi South 9.2 mph - -  
7:00 PM 21.2 °F 10.9 °F 17.6 °F 86% 29.87 in 1.5 mi SSW 9.2 mph - N/A Snow Light Snow
7:11 PM 21.2 °F 10.1 °F 19.4 °F 93% 29.88 in 1.0 mi SSW 10.4 mph - N/A Snow Light Snow
7:48 PM 21.2 °F 10.9 °F 19.4 °F 93% 29.88 in 2.0 mi SSW 9.2 mph - N/A Snow Light Snow
8:00 PM 21.2 °F 9.5 °F 19.4 °F 93% 29.89 in 5.0 mi SSW 11.5 mph - N/A Snow Light Snow
9:00 PM 21.2 °F 8.9 °F 19.4 °F 93% 29.89 in 8.0 mi SW 12.7 mph - N/A Snow Light Snow
10:00 PM 23.0 °F 10.1 °F 19.4 °F 86% 29.90 in 12.0 mi SW 15.0 mph - N/A Snow Light Snow
11:00 PM 23.0 °F 11.1 °F 21.2 °F 93% 29.90 in 12.0 mi WSW 12.7 mph 21.9 mph N/A Snow Light Snow